Milford, UT

6:31 AM MDT on July 30, 2016 (GMT -0600)
Milford Municipal

Weather History for KMLF - March, 2013

Change the Weather History Date:

Tuesday, March 5, 2013

  Actual Average Record
Temperature  
Mean Temperature 38 °F -  
Max Temperature 60 °F 49 °F 69 °F (2012)
Min Temperature 16 °F 23 °F 15 °F (2002)
Degree Days  
Heating Degree Days 27    
Moisture  
Dew Point 19 °F    
Average Humidity 58    
Maximum Humidity 86    
Minimum Humidity 11    
Precipitation  
Precipitation 0.00 in - - ()
Sea Level Pressure  
Sea Level Pressure 30.13 in    
Wind  
Wind Speed 5 mph (SSW)    
Max Wind Speed 24 mph    
Max Gust Speed 30 mph    
Visibility 8 miles    
Events      
Averages and records for this station are not official NWS values.
T = Trace of Precipitation, MM = Missing Value Source: NWS Daily Summary

Daily Weather History Graph

Daily Weather History Graph

Search for Another Location

Airport or City:

Trip Planner

Search our weather history database for the weather conditions in past years. The results will help you decide how hot, cold, wet, or windy it might be!

Date:

Astronomy

Mar. 05, 2013 Rise Set
Actual Time 6:57 AM MST 6:29 PM MST
Civil Twilight 6:31 AM MST 6:56 PM MST
Nautical Twilight 6:00 AM MST 7:26 PM MST
Astronomical Twilight 5:30 AM MST 7:57 PM MST
Moon 2:10 AM MST (3/5) 12:16 PM MST (3/5)
Length of Visible Light 12h 24m
Length of Day
11h 31m
Last Quarter, 40% of the Moon is Illuminated
Mar 5
Last Quarter
Mar 11
New
Mar 19
First Quarter
Mar 27
Full
Apr 2
Last Quarter

Hourly Weather History & Observations

Time (MST) Temp. Windchill Dew Point Humidity Pressure Visibility Wind Dir Wind Speed Gust Speed Precip Events Conditions
12:52 AM 23.0 °F - 16.0 °F 74% 30.26 in 10.0 mi Calm Calm - N/A   Clear
1:04 AM 24.8 °F - 15.8 °F 69% 30.23 in 0.8 mi Calm Calm - N/A   Haze
1:15 AM 21.2 °F - 15.8 °F 80% 30.22 in 2.5 mi Calm Calm - N/A   Haze
1:20 AM 21.2 °F - 15.8 °F 80% 30.22 in 10.0 mi Calm Calm - N/A   Clear
1:52 AM 21.9 °F 17.2 °F 16.0 °F 78% 30.27 in 10.0 mi West 3.5 mph - N/A   Clear
2:36 AM 21.2 °F - 15.8 °F 80% 30.22 in 0.8 mi Calm Calm - N/A   Haze
2:46 AM 21.2 °F 16.4 °F 15.8 °F 80% 30.22 in 3.0 mi SSE 3.5 mph - N/A   Haze
2:52 AM 21.9 °F - 16.0 °F 78% 30.25 in 10.0 mi Calm Calm - N/A   Clear
3:52 AM 21.0 °F - 15.1 °F 78% 30.23 in 10.0 mi Calm Calm - N/A   Clear
4:07 AM 19.4 °F - 14.0 °F 80% 30.19 in 0.2 mi Calm Calm - N/A   Haze
4:16 AM 19.4 °F - 14.0 °F 80% 30.19 in 2.5 mi Calm Calm - N/A   Haze
4:21 AM 19.4 °F 11.5 °F 15.8 °F 86% 30.19 in 10.0 mi West 5.8 mph - N/A   Clear
4:52 AM 19.9 °F 14.9 °F 15.1 °F 81% 30.24 in 10.0 mi Variable 3.5 mph - N/A   Clear
5:17 AM 17.6 °F 12.3 °F 12.2 °F 79% 30.20 in 0.8 mi SSW 3.5 mph - N/A   Clear
5:29 AM 17.6 °F - 12.2 °F 79% 30.20 in 2.5 mi Calm Calm - N/A   Haze
5:34 AM 17.6 °F - 12.2 °F 79% 30.20 in 10.0 mi Calm Calm - N/A   Clear
5:52 AM 19.9 °F - 14.0 °F 78% 30.25 in 10.0 mi Calm Calm - N/A   Clear
6:52 AM 18.0 °F 9.8 °F 14.0 °F 84% 30.27 in 10.0 mi West 5.8 mph - N/A   Clear
7:52 AM 19.9 °F 14.9 °F 15.1 °F 81% 30.28 in 10.0 mi WSW 3.5 mph - N/A   Clear
8:52 AM 28.0 °F 21.7 °F 21.0 °F 75% 30.25 in 10.0 mi SSW 5.8 mph - N/A   Clear
9:52 AM 33.1 °F 25.5 °F 21.9 °F 64% 30.23 in 10.0 mi South 9.2 mph - N/A   Clear
10:52 AM 39.9 °F 33.4 °F 21.9 °F 49% 30.18 in 10.0 mi SSW 10.4 mph - N/A   Clear
11:52 AM 46.9 °F - 21.9 °F 37% 30.12 in 10.0 mi South 11.5 mph - N/A   Clear
12:52 PM 55.0 °F - 21.9 °F 28% 30.07 in 10.0 mi SW 18.4 mph 24.2 mph N/A   Clear
1:52 PM 57.0 °F - 24.1 °F 28% 30.05 in 10.0 mi SSW 20.7 mph - N/A   Clear
2:52 PM 59.0 °F - 21.0 °F 23% 30.00 in 10.0 mi SSW 24.2 mph 29.9 mph N/A   Clear
3:52 PM 59.0 °F - 21.0 °F 23% 29.99 in 10.0 mi SSW 20.7 mph 29.9 mph N/A   Clear
4:52 PM 60.1 °F - 19.0 °F 20% 29.95 in 10.0 mi SSW 19.6 mph 28.8 mph N/A   Clear
5:52 PM 55.9 °F - 18.0 °F 23% 29.95 in 10.0 mi SW 23.0 mph 29.9 mph N/A   Clear
6:52 PM 48.0 °F - 21.9 °F 36% 29.99 in 10.0 mi SSW 10.4 mph - N/A   Clear
7:52 PM 48.0 °F - 23.0 °F 37% 30.00 in 10.0 mi South 12.7 mph - N/A   Clear
8:49 PM 42.8 °F 40.1 °F 23.0 °F 46% 29.98 in 0.2 mi South 4.6 mph - N/A   Haze
8:52 PM 42.1 °F 39.2 °F 23.0 °F 47% 29.99 in 0.2 mi South 4.6 mph - N/A   Haze
8:57 PM 42.8 °F 38.6 °F 23.0 °F 46% 29.98 in 3.0 mi South 6.9 mph - N/A   Haze
9:52 PM 37.9 °F 31.5 °F 24.1 °F 57% 30.00 in 10.0 mi SSW 9.2 mph - N/A   Clear
10:52 PM 39.9 °F 32.9 °F 25.0 °F 55% 29.97 in 10.0 mi SSW 11.5 mph - N/A   Clear
11:52 PM 37.0 °F 28.9 °F 25.0 °F 62% 29.94 in 10.0 mi WSW 12.7 mph - N/A   Clear